• In Deutschland
  • Länderverzeichnis
  • Für 7 Tage
  • Wassertemperatur
  • Satellitenkarten
  • Wetterkarte
  • Widgets
  • user-avatar
    Anmelden

    Stündliche Wetter Bad Sulza

    Heute, 25 Juni, Montag

    Zeit Temperatur Niederschläge Wind Luftdruck Luftfeuchtigkeit
    00:00 +12°C° 0 mm 2 m/S 746 mmHg 95%
    01:00 +12°C° 0 mm 2 m/S 746 mmHg 97%
    02:00 +12°C° 0 mm 2 m/S 746 mmHg 97%
    03:00 +12°C° 0 mm 2 m/S 746 mmHg 97%
    04:00 +10°C° 0 mm 2 m/S 747 mmHg 97%
    05:00 +12°C° 0 mm 2 m/S 747 mmHg 95%
    06:00 +13°C° 0 mm 2 m/S 747 mmHg 92%
    07:00 +14°C° 0 mm 2 m/S 747 mmHg 89%
    08:00 +14°C° 0,1 mm 2 m/S 747 mmHg 85%
    09:00 +15°C° 0,1 mm 2 m/S 747 mmHg 81%
    10:00 +16°C° 0,1 mm 2 m/S 748 mmHg 78%
    11:00 +17°C° 0 mm 2 m/S 748 mmHg 74%
    12:00 +17°C° 0 mm 3 m/S 748 mmHg 71%
    13:00 +18°C° 0 mm 3 m/S 748 mmHg 68%
    14:00 +19°C° 0 mm 3 m/S 748 mmHg 68%
    15:00 +19°C° 0 mm 4 m/S 748 mmHg 68%
    16:00 +20°C° 0 mm 4 m/S 747 mmHg 68%
    17:00 +19°C° 0 mm 4 m/S 747 mmHg 72%
    18:00 +18°C° 0 mm 3 m/S 748 mmHg 76%
    19:00 +18°C° 0 mm 3 m/S 748 mmHg 81%
    20:00 +16°C° 0 mm 3 m/S 748 mmHg 85%
    21:00 +15°C° 0 mm 2 m/S 748 mmHg 90%
    22:00 +13°C° 0 mm 2 m/S 748 mmHg 94%
    23:00 +13°C° 0 mm 2 m/S 748 mmHg 95%

    Morgen, 26 Juni, Dienstag

    Zeit Temperatur Niederschläge Wind Luftdruck Luftfeuchtigkeit
    00:00 +13°C° 0 mm 2 m/S 749 mmHg 95%
    01:00 +13°C° 0 mm 1 m/S 749 mmHg 96%
    02:00 +13°C° 0 mm 1 m/S 749 mmHg 96%
    03:00 +12°C° 0 mm 1 m/S 748 mmHg 96%
    04:00 +12°C° 0 mm 1 m/S 748 mmHg 96%
    05:00 +13°C° 0 mm 1 m/S 748 mmHg 95%
    06:00 +14°C° 0 mm 1 m/S 749 mmHg 93%
    07:00 +14°C° 0 mm 1 m/S 749 mmHg 91%
    08:00 +15°C° 0 mm 1 m/S 749 mmHg 88%
    09:00 +16°C° 0 mm 1 m/S 749 mmHg 84%
    10:00 +17°C° 0 mm 2 m/S 749 mmHg 80%
    11:00 +18°C° 0 mm 2 m/S 749 mmHg 78%
    12:00 +18°C° 0 mm 2 m/S 749 mmHg 75%
    13:00 +19°C° 0 mm 2 m/S 749 mmHg 73%
    14:00 +20°C° 0 mm 2 m/S 749 mmHg 70%
    15:00 +20°C° 0 mm 2 m/S 749 mmHg 67%
    16:00 +21°C° 0 mm 2 m/S 749 mmHg 64%
    17:00 +21°C° 0 mm 2 m/S 749 mmHg 68%
    18:00 +21°C° 0 mm 2 m/S 749 mmHg 72%
    19:00 +20°C° 0 mm 2 m/S 749 mmHg 76%
    20:00 +19°C° 0 mm 2 m/S 749 mmHg 81%
    21:00 +17°C° 0 mm 2 m/S 749 mmHg 86%
    22:00 +16°C° 0 mm 2 m/S 749 mmHg 90%
    23:00 +15°C° 0 mm 2 m/S 749 mmHg 92%

    übermorgen, 27 Juni, Mittwoch

    Zeit Temperatur Niederschläge Wind Luftdruck Luftfeuchtigkeit
    00:00 +15°C° 0 mm 2 m/S 749 mmHg 93%
    01:00 +14°C° 0 mm 2 m/S 749 mmHg 94%
    02:00 +13°C° 0 mm 2 m/S 749 mmHg 95%
    03:00 +13°C° 0 mm 2 m/S 749 mmHg 95%
    04:00 +12°C° 0 mm 2 m/S 749 mmHg 96%
    05:00 +13°C° 0 mm 2 m/S 749 mmHg 93%
    06:00 +14°C° 0 mm 2 m/S 749 mmHg 90%
    07:00 +14°C° 0 mm 3 m/S 750 mmHg 88%
    08:00 +16°C° 0 mm 3 m/S 750 mmHg 82%
    09:00 +18°C° 0 mm 3 m/S 750 mmHg 76%
    10:00 +19°C° 0 mm 4 m/S 750 mmHg 71%
    11:00 +20°C° 0 mm 4 m/S 750 mmHg 67%
    12:00 +21°C° 0 mm 4 m/S 749 mmHg 64%
    13:00 +22°C° 0 mm 4 m/S 749 mmHg 61%
    14:00 +22°C° 0,1 mm 4 m/S 749 mmHg 60%
    15:00 +22°C° 0,1 mm 4 m/S 749 mmHg 60%
    16:00 +23°C° 0,1 mm 4 m/S 748 mmHg 60%
    17:00 +22°C° 0,1 mm 4 m/S 749 mmHg 64%
    18:00 +21°C° 0,1 mm 3 m/S 749 mmHg 69%
    19:00 +20°C° 0,1 mm 3 m/S 749 mmHg 74%
    20:00 +19°C° 0 mm 3 m/S 749 mmHg 78%
    21:00 +17°C° 0 mm 2 m/S 749 mmHg 82%
    22:00 +16°C° 0 mm 2 m/S 749 mmHg 86%
    23:00 +15°C° 0 mm 2 m/S 749 mmHg 89%

    28 Juni, Donnerstag

    Zeit Temperatur Niederschläge Wind Luftdruck Luftfeuchtigkeit
    00:00 +15°C° 0 mm 2 m/S 749 mmHg 91%
    01:00 +14°C° 0 mm 2 m/S 749 mmHg 94%
    02:00 +14°C° 0 mm 2 m/S 749 mmHg 94%
    03:00 +14°C° 0 mm 2 m/S 749 mmHg 95%
    04:00 +13°C° 0 mm 2 m/S 748 mmHg 96%
    05:00 +15°C° 0 mm 2 m/S 748 mmHg 94%
    06:00 +16°C° 0 mm 3 m/S 748 mmHg 91%
    07:00 +17°C° 0 mm 3 m/S 748 mmHg 88%
    08:00 +19°C° 0 mm 4 m/S 748 mmHg 84%
    09:00 +20°C° 0 mm 5 m/S 747 mmHg 79%
    10:00 +22°C° 0 mm 6 m/S 747 mmHg 74%
    11:00 +23°C° 0,1 mm 6 m/S 747 mmHg 69%
    12:00 +24°C° 0,1 mm 6 m/S 746 mmHg 64%
    13:00 +26°C° 0,1 mm 7 m/S 746 mmHg 59%
    14:00 +26°C° 0 mm 6 m/S 746 mmHg 60%
    15:00 +26°C° 0 mm 6 m/S 746 mmHg 62%
    16:00 +26°C° 0 mm 5 m/S 745 mmHg 63%
    17:00 +25°C° 0,2 mm 5 m/S 745 mmHg 67%
    18:00 +23°C° 0,2 mm 4 m/S 745 mmHg 71%
    19:00 +23°C° 0,2 mm 4 m/S 745 mmHg 76%
    20:00 +22°C° 0,1 mm 4 m/S 745 mmHg 77%
    21:00 +21°C° 0,1 mm 4 m/S 745 mmHg 78%
    22:00 +21°C° 0,1 mm 4 m/S 745 mmHg 79%
    23:00 +20°C° 0 mm 4 m/S 745 mmHg 81%

    29 Juni, Freitag

    Zeit Temperatur Niederschläge Wind Luftdruck Luftfeuchtigkeit
    00:00 +19°C° 0 mm 4 m/S 745 mmHg 83%
    01:00 +18°C° 0 mm 4 m/S 745 mmHg 85%
    02:00 +18°C° 0 mm 4 m/S 745 mmHg 87%
    03:00 +17°C° 0 mm 3 m/S 745 mmHg 89%
    04:00 +16°C° 0 mm 3 m/S 745 mmHg 92%
    05:00 +17°C° 0 mm 3 m/S 745 mmHg 90%
    06:00 +18°C° 0 mm 4 m/S 745 mmHg 88%
    07:00 +19°C° 0 mm 4 m/S 745 mmHg 86%
    08:00 +21°C° 0 mm 4 m/S 745 mmHg 82%
    09:00 +22°C° 0 mm 5 m/S 745 mmHg 78%
    10:00 +25°C° 0 mm 5 m/S 745 mmHg 74%
    11:00 +25°C° 0,1 mm 5 m/S 745 mmHg 72%
    12:00 +26°C° 0,1 mm 5 m/S 745 mmHg 71%
    13:00 +27°C° 0,1 mm 5 m/S 745 mmHg 69%
    14:00 +27°C° 0,5 mm 5 m/S 744 mmHg 68%
    15:00 +28°C° 0,5 mm 5 m/S 744 mmHg 68%
    16:00 +28°C° 0,5 mm 5 m/S 744 mmHg 68%
    17:00 +27°C° 0,3 mm 4 m/S 744 mmHg 70%
    18:00 +27°C° 0,3 mm 4 m/S 744 mmHg 73%
    19:00 +26°C° 0,3 mm 4 m/S 744 mmHg 75%
    20:00 +25°C° 0 mm 3 m/S 744 mmHg 76%
    21:00 +22°C° 0 mm 3 m/S 745 mmHg 77%
    22:00 +21°C° 0 mm 3 m/S 745 mmHg 77%
    23:00 +20°C° 0 mm 3 m/S 745 mmHg 78%

    30 Juni, Samstag

    Zeit Temperatur Niederschläge Wind Luftdruck Luftfeuchtigkeit
    00:00 +19°C° 0 mm 3 m/S 745 mmHg 79%
    01:00 +18°C° 0 mm 2 m/S 745 mmHg 80%
    02:00 +18°C° 0 mm 2 m/S 745 mmHg 82%
    03:00 +17°C° 0 mm 2 m/S 745 mmHg 85%
    04:00 +16°C° 0 mm 2 m/S 745 mmHg 87%
    05:00 +18°C° 0 mm 2 m/S 746 mmHg 85%
    06:00 +19°C° 0 mm 2 m/S 746 mmHg 82%
    07:00 +20°C° 0 mm 2 m/S 746 mmHg 80%
    08:00 +22°C° 0 mm 3 m/S 746 mmHg 73%
    09:00 +24°C° 0 mm 3 m/S 747 mmHg 66%
    10:00 +26°C° 0 mm 4 m/S 747 mmHg 59%
    11:00 +27°C° 0 mm 4 m/S 747 mmHg 56%
    12:00 +28°C° 0 mm 4 m/S 746 mmHg 53%
    13:00 +28°C° 0 mm 5 m/S 746 mmHg 50%
    14:00 +28°C° 0 mm 5 m/S 746 mmHg 50%
    15:00 +28°C° 0 mm 5 m/S 746 mmHg 51%
    16:00 +28°C° 0 mm 5 m/S 746 mmHg 51%
    17:00 +27°C° 0 mm 4 m/S 746 mmHg 56%
    18:00 +26°C° 0 mm 4 m/S 746 mmHg 61%
    19:00 +25°C° 0 mm 3 m/S 746 mmHg 65%
    20:00 +22°C° 0 mm 3 m/S 746 mmHg 68%
    21:00 +20°C° 0 mm 3 m/S 746 mmHg 71%
    22:00 +19°C° 0 mm 3 m/S 746 mmHg 74%
    23:00 +18°C° 0 mm 3 m/S 747 mmHg 75%
    Mehr zeigen